Montana Department of Transportation

Main Content

Accidents and Incidents Report

Hourly Weather Roundup

ASUS45 KTFX 171304
RWRMT 
MONTANA HOURLY WEATHER ROUNDUP
NATIONAL WEATHER SERVICE GREAT FALLS MT
704 AM MDT THU APR 17 2014

NOTE: "FAIR" INDICATES FEW OR NO CLOUDS BELOW 12000 FEET WITH NO
SIGNIFICANT WEATHER AND/OR OBSTRUCTIONS TO VISIBILITY.

* THESE STATIONS ARE NOT UNDER NWS QUALITY CONTROL. THEY DO NOT
   REPORT WEATHER SUCH AS PRECIPITATION OR FOG.

MTZ001.007-043-171400-
WEST OF THE DIVIDE
CITY           SKY/WX    TMP DP  RH WIND       PRES   REMARKS
KALISPELL      LGT RAIN  41  36  82 S8        29.89S 
MISSOULA       CLOUDY    43  34  71 SE7       29.93F 
BUTTE          MOCLDY    28  23  81 CALM      29.95S 
MULLAN PASS    LGT SNOW  30  30 100 VRB6      29.86F VSB M1/4 WCI  24 
* SEELEY LAKE  N/A       33  31  92 N/A        N/A   
* THOMP F APT  MOCLDY    30  15  54 N/A        N/A   
--------------------------------

MTZ008-052.055-171400-
SOUTHWEST MONTANA
CITY           SKY/WX    TMP DP  RH WIND       PRES   REMARKS
BOZEMAN        PTCLDY    30  25  82 CALM      29.96S 
DILLON         MOCLDY    32  18  56 S8        29.96S WCI  25 
* WHITEHALL    N/A       33  22  64 N5         N/A   WCI  28 
* WISE RIVER   N/A       30  22  72 SW1        N/A   
--------------------------------

MTZ009.010-012-014-046-048-049-054-171400-
EAST SLOPES AND CENTRAL MONTANA
CITY           SKY/WX    TMP DP  RH WIND       PRES   REMARKS
CUT BANK       FOG       23  21  92 CALM      29.84F VSB 1/2  
GREAT FALLS    CLOUDY    37  30  76 S10       29.87F WCI  30 
HELENA         MOCLDY    37  28  70 CALM      29.93S 
MALMSTROM AFB  MOCLDY    36  28  73 S10       29.85F WCI  29 
* MONARCH      N/A       33  22  64 S13        N/A   WCI  24 
* SAINT MARY   N/A       37  32  82 S6G13      N/A   WCI  32 
* SWEET GRASS  N/A       29  29 100 S14        N/A   WCI  18 
--------------------------------

MTZ011-013-016-021-035-040-045-047-050-051-171400-
NORTH CENTRAL MONTANA
CITY           SKY/WX    TMP DP  RH WIND       PRES   REMARKS
HAVRE          MOCLDY    27  23  85 E5        29.90F WCI  21 
LEWISTOWN      MOCLDY    28  27  96 SE7       29.92F WCI  21 
--------------------------------

MTZ017.020-022.027-061-062-171400-
NORTHEAST MONTANA
CITY           SKY/WX    TMP DP  RH WIND       PRES   REMARKS
GLASGOW        CLEAR     25  21  85 E18       30.06F WCI  11 
GLENDIVE       FAIR      25  21  85 E7        30.12F WCI  17 
JORDAN         CLEAR     28  25  89 E5        30.03F WCI  22 
SIDNEY         CLOUDY    30  21  69 SE7       30.19S WCI  23 
WOLF POINT     MOCLDY    28  19  69 E8        30.14S WCI  20 
* NAVAJO       N/A       24  22  92 SE10       N/A   WCI  14 
--------------------------------

MTZ028.042-056.058-171400-
SOUTHCENTRAL AND SOUTHEAST MONTANA
CITY           SKY/WX    TMP DP  RH WIND       PRES   REMARKS
BAKER          CLOUDY    28  25  89 SE18      30.11S WCI  15 
BILLINGS       MOCLDY    34  30  85 N3        29.99S 
LIVINGSTON     MOCLDY    32  28  85 N5        29.96S WCI  27 
MILES CITY     CLOUDY    34  28  79 E5        30.07S WCI  29 
--------------------------------

REGIONAL REPORTS...DAKOTAS
CITY           SKY/WX    TMP DP  RH WIND       PRES   REMARKS
WILLISTON      CLOUDY    27  21  78 SE14      30.21S WCI  16 
DICKINSON      CLOUDY    27  18  69 SE18      30.18R WCI  14 
CROSBY         CLOUDY    25  18  75 E12       30.25S WCI  14 
TIOGA          CLOUDY    21  19  92 E12       30.26S WCI   9 
WATFORD CITY   MOCLDY    27  16  63 SE16G22   30.19S WCI  15 
BISMARCK       CLOUDY    25  16  69 E7        30.32S WCI  17 
GRAND FORKS    CLEAR     25  19  78 N9        30.36R WCI  16 
FARGO          CLEAR     25  19  78 N9        30.33R WCI  16 
RAPID CITY     CLOUDY    30  27  89 SE14      30.15R WCI  19 
--------------------------------

REGIONAL REPORTS...WYOMING/IDAHO/WASHINGTON
CITY           SKY/WX    TMP DP  RH WIND       PRES   REMARKS
GILLETTE       FOG       34  30  85 SE9       30.04R WCI  27 
SHERIDAN       CLOUDY    34  30  85 S3        30.02S 
CODY           PTCLDY    28  25  89 SW3       29.99R 
YELLOWSTONE LA PTCLDY    14   9  80 CALM      30.04R 
SALMON         MOCLDY    30  21  69 CALM      29.99S 
MULLAN PASS    LGT SNOW  30  30 100 VRB6      29.86S VSB M1/4 WCI  24 
SPOKANE        LGT RAIN  43  41  93 S7        29.86F 
--------------------------------

REGIONAL REPORTS...ALBERTA
CITY           SKY/WX    TMP DP  RH WIND       PRES   REMARKS
LETHBRIDGE     FOG       30  28  92 NE2       29.80S VSB M1/4 

--------------------------------